Time,TemperatureF,DewpointF,PressureIn,WindDirection,WindDirectionDegrees,WindSpeedMPH,WindSpeedGustMPH,Humidity,HourlyPrecipIn,Conditions,Clouds,dailyrainin,SoftwareType,DateUTC
2013-10-26 00:13:00,45.0,35.0,30.12,SW,219,1.0,5.0,67,0.00,,,0.00,,2013-10-26 05:13:00,
2013-10-26 00:23:00,45.0,35.0,30.12,WSW,252,2.0,8.0,68,0.00,,,0.00,,2013-10-26 05:23:00,
2013-10-26 00:52:00,45.0,36.0,30.11,WSW,241,2.0,5.0,70,0.00,,,0.00,,2013-10-26 05:52:00,
2013-10-26 01:12:00,45.0,37.0,30.11,WSW,257,1.0,7.0,72,0.00,,,0.00,,2013-10-26 06:12:00,
2013-10-26 01:22:00,45.0,37.0,30.11,WSW,258,0.0,4.0,72,0.00,,,0.00,,2013-10-26 06:22:00,
2013-10-26 01:52:00,42.0,35.0,30.10,WSW,257,0.0,2.0,77,0.00,,,0.00,,2013-10-26 06:52:00,
2013-10-26 02:11:00,43.0,37.0,30.09,WSW,239,1.0,4.0,80,0.00,,,0.00,,2013-10-26 07:11:00,
2013-10-26 02:22:00,44.0,38.0,30.09,SW,230,2.0,5.0,79,0.00,,,0.00,,2013-10-26 07:22:00,
2013-10-26 02:42:00,44.0,38.0,30.09,WSW,248,1.0,5.0,78,0.00,,,0.00,,2013-10-26 07:42:00,
2013-10-26 02:52:00,44.0,38.0,30.09,SW,234,3.0,8.0,78,0.00,,,0.00,,2013-10-26 07:52:00,
2013-10-26 03:11:00,44.0,38.0,30.09,West,269,2.0,5.0,79,0.00,,,0.00,,2013-10-26 08:11:00,
2013-10-26 03:22:00,43.0,37.0,30.09,WSW,250,2.0,5.0,80,0.00,,,0.00,,2013-10-26 08:22:00,
2013-10-26 03:42:00,43.0,38.0,30.09,WSW,239,2.0,6.0,81,0.00,,,0.00,,2013-10-26 08:42:00,
2013-10-26 03:52:00,42.0,37.0,30.08,West,267,2.0,6.0,82,0.00,,,0.00,,2013-10-26 08:52:00,
2013-10-26 04:11:00,42.0,37.0,30.08,West,263,2.0,5.0,83,0.00,,,0.00,,2013-10-26 09:11:00,
2013-10-26 04:22:00,42.0,37.0,30.08,WSW,252,2.0,5.0,83,0.00,,,0.00,,2013-10-26 09:22:00,
2013-10-26 04:43:00,41.0,37.0,30.08,West,265,1.0,3.0,84,0.00,,,0.00,,2013-10-26 09:43:00,
2013-10-26 04:53:00,41.0,37.0,30.08,West,265,2.0,5.0,86,0.00,,,0.00,,2013-10-26 09:53:00,
2013-10-26 05:13:00,41.0,37.0,30.08,West,263,1.0,3.0,87,0.00,,,0.00,,2013-10-26 10:13:00,
2013-10-26 05:23:00,41.0,37.0,30.08,West,263,2.0,5.0,87,0.00,,,0.00,,2013-10-26 10:23:00,
2013-10-26 05:53:00,40.0,37.0,30.09,West,273,3.0,5.0,90,0.00,,,0.00,,2013-10-26 10:53:00,
2013-10-26 06:11:00,40.0,37.0,30.10,West,275,0.0,3.0,89,0.00,,,0.00,,2013-10-26 11:11:00,
2013-10-26 06:21:00,39.0,36.0,30.10,West,275,1.0,2.0,90,0.00,,,0.00,,2013-10-26 11:21:00,
2013-10-26 06:42:00,39.0,37.0,30.11,West,274,2.0,3.0,91,0.00,,,0.00,,2013-10-26 11:42:00,
2013-10-26 06:52:00,39.0,37.0,30.11,West,265,1.0,3.0,91,0.00,,,0.00,,2013-10-26 11:52:00,
2013-10-26 07:12:00,38.0,36.0,30.13,West,265,1.0,2.0,91,0.00,,,0.00,,2013-10-26 12:12:00,
2013-10-26 07:22:00,39.0,37.0,30.13,West,277,2.0,4.0,92,0.00,,,0.00,,2013-10-26 12:22:00,
2013-10-26 07:42:00,39.0,37.0,30.14,West,279,2.0,4.0,92,0.00,,,0.00,,2013-10-26 12:42:00,
2013-10-26 07:52:00,39.0,37.0,30.14,WNW,294,1.0,3.0,91,0.00,,,0.00,,2013-10-26 12:52:00,
2013-10-26 08:11:00,39.0,36.0,30.15,NW,309,2.0,4.0,90,0.00,,,0.00,,2013-10-26 13:11:00,
2013-10-26 08:21:00,38.0,35.0,30.16,NW,323,2.0,5.0,90,0.00,,,0.00,,2013-10-26 13:21:00,
2013-10-26 08:42:00,39.0,36.0,30.16,NW,323,2.0,4.0,90,0.00,,,0.00,,2013-10-26 13:42:00,
2013-10-26 08:52:00,40.0,37.0,30.17,NNW,348,2.0,5.0,88,0.00,,,0.00,,2013-10-26 13:52:00,
2013-10-26 10:55:00,50.0,38.0,30.22,North,351,8.0,13.0,64,0.00,,,0.00,,2013-10-26 15:55:00,
2013-10-26 11:14:00,51.0,38.0,30.23,NE,54,8.0,14.0,61,0.00,,,0.00,,2013-10-26 16:14:00,
2013-10-26 11:24:00,52.0,37.0,30.23,North,355,7.0,13.0,57,0.00,,,0.00,,2013-10-26 16:24:00,
2013-10-26 11:44:00,53.0,36.0,30.23,NNW,336,7.0,12.0,53,0.00,,,0.00,,2013-10-26 16:44:00,
2013-10-26 11:54:00,54.0,36.0,30.24,NNE,23,7.0,13.0,50,0.00,,,0.00,,2013-10-26 16:54:00,
2013-10-26 12:12:00,54.0,35.0,30.24,North,9,9.0,15.0,48,0.00,,,0.00,,2013-10-26 17:12:00,
2013-10-26 12:23:00,54.0,35.0,30.24,East,91,5.0,13.0,48,0.00,,,0.00,,2013-10-26 17:23:00,
2013-10-26 12:43:00,55.0,33.0,30.24,NNW,342,8.0,18.0,44,0.00,,,0.00,,2013-10-26 17:43:00,
2013-10-26 12:52:00,55.0,33.0,30.24,NNW,348,7.0,16.0,43,0.00,,,0.00,,2013-10-26 17:52:00,
2013-10-26 13:12:00,56.0,33.0,30.24,NW,323,6.0,13.0,42,0.00,,,0.00,,2013-10-26 18:12:00,
2013-10-26 13:22:00,56.0,31.0,30.23,North,9,8.0,14.0,39,0.00,,,0.00,,2013-10-26 18:22:00,
2013-10-26 13:42:00,56.0,32.0,30.23,NNE,28,8.0,15.0,40,0.00,,,0.00,,2013-10-26 18:42:00,
2013-10-26 13:52:00,56.0,31.0,30.23,NW,315,6.0,12.0,39,0.00,,,0.00,,2013-10-26 18:52:00,
2013-10-26 14:12:00,57.0,32.0,30.22,NNW,346,9.0,19.0,39,0.00,,,0.00,,2013-10-26 19:12:00,
2013-10-26 14:22:00,56.0,31.0,30.22,NNE,28,8.0,17.0,39,0.00,,,0.00,,2013-10-26 19:22:00,
2013-10-26 14:42:00,56.0,33.0,30.21,NW,321,6.0,11.0,41,0.00,,,0.00,,2013-10-26 19:42:00,
2013-10-26 14:52:00,56.0,31.0,30.21,North,350,7.0,13.0,38,0.00,,,0.00,,2013-10-26 19:52:00,
2013-10-26 15:12:00,57.0,32.0,30.21,NW,313,7.0,14.0,38,0.00,,,0.00,,2013-10-26 20:12:00,
2013-10-26 15:22:00,57.0,30.0,30.21,North,360,8.0,15.0,35,0.00,,,0.00,,2013-10-26 20:22:00,
2013-10-26 15:43:00,57.0,29.0,30.21,NNW,338,8.0,14.0,34,0.00,,,0.00,,2013-10-26 20:43:00,
2013-10-26 15:52:00,57.0,30.0,30.21,NNE,22,8.0,14.0,36,0.00,,,0.00,,2013-10-26 20:52:00,
2013-10-26 16:11:00,57.0,29.0,30.21,North,355,6.0,12.0,34,0.00,,,0.00,,2013-10-26 21:11:00,
2013-10-26 16:22:00,57.0,28.0,30.21,NW,319,7.0,12.0,33,0.00,,,0.00,,2013-10-26 21:22:00,
2013-10-26 16:43:00,57.0,29.0,30.21,NE,34,7.0,13.0,34,0.00,,,0.00,,2013-10-26 21:43:00,
2013-10-26 16:55:00,57.0,28.0,30.20,North,360,8.0,13.0,33,0.00,,,0.00,,2013-10-26 21:55:00,
2013-10-26 17:14:00,56.0,28.0,30.19,ENE,63,4.0,11.0,34,0.00,,,0.00,,2013-10-26 22:14:00,
2013-10-26 17:24:00,56.0,27.0,30.19,NNE,14,7.0,11.0,32,0.00,,,0.00,,2013-10-26 22:24:00,
2013-10-26 17:54:00,55.0,26.0,30.19,North,355,6.0,12.0,33,0.00,,,0.00,,2013-10-26 22:54:00,
2013-10-26 18:12:00,54.0,26.0,30.19,NW,322,6.0,10.0,33,0.00,,,0.00,,2013-10-26 23:12:00,
2013-10-26 18:22:00,53.0,25.0,30.19,NNW,338,5.0,9.0,33,0.00,,,0.00,,2013-10-26 23:22:00,
2013-10-26 18:42:00,52.0,26.0,30.19,North,355,3.0,8.0,36,0.00,,,0.00,,2013-10-26 23:42:00,
2013-10-26 18:52:00,51.0,26.0,30.19,North,360,1.0,4.0,37,0.00,,,0.00,,2013-10-26 23:52:00,
2013-10-26 19:12:00,49.0,26.0,30.20,North,9,1.0,2.0,40,0.00,,,0.00,,2013-10-27 00:12:00,
2013-10-26 19:21:00,47.0,26.0,30.20,North,5,0.0,2.0,43,0.00,,,0.00,,2013-10-27 00:21:00,
2013-10-26 19:42:00,46.0,26.0,30.20,North,360,0.0,2.0,45,0.00,,,0.00,,2013-10-27 00:42:00,
2013-10-26 19:52:00,45.0,27.0,30.21,North,9,1.0,3.0,48,0.00,,,0.00,,2013-10-27 00:52:00,
2013-10-26 20:11:00,44.0,26.0,30.21,North,5,0.0,0.0,49,0.00,,,0.00,,2013-10-27 01:11:00,
2013-10-26 20:22:00,44.0,27.0,30.21,North,5,0.0,1.0,50,0.00,,,0.00,,2013-10-27 01:22:00,
2013-10-26 20:52:00,42.0,27.0,30.21,North,5,0.0,1.0,54,0.00,,,0.00,,2013-10-27 01:52:00,
2013-10-26 21:12:00,41.0,27.0,30.21,North,5,0.0,1.0,56,0.00,,,0.00,,2013-10-27 02:12:00,
2013-10-26 21:21:00,39.0,26.0,30.21,North,5,0.0,1.0,59,0.00,,,0.00,,2013-10-27 02:21:00,
2013-10-26 21:42:00,35.0,26.0,30.21,NW,324,2.0,3.0,68,0.00,,,0.00,,2013-10-27 02:42:00,
2013-10-26 21:52:00,33.0,25.0,30.21,WNW,300,0.0,2.0,72,0.00,,,0.00,,2013-10-27 02:52:00,
2013-10-26 22:11:00,31.0,25.0,30.21,WNW,300,1.0,2.0,77,0.00,,,0.00,,2013-10-27 03:11:00,
2013-10-26 22:22:00,30.0,25.0,30.21,WNW,300,1.0,2.0,81,0.00,,,0.00,,2013-10-27 03:22:00,
2013-10-26 22:55:00,29.0,24.0,30.21,WNW,300,0.0,2.0,82,0.00,,,0.00,,2013-10-27 03:55:00,
2013-10-26 23:02:00,-999.0,-99.9,30.21,WNW,300,0.0,0.0,-999,-99.99,,,-99.99,,2013-10-27 04:02:00,
2013-10-26 23:13:00,28.0,24.0,30.21,WNW,300,0.0,0.0,85,0.00,,,0.00,,2013-10-27 04:13:00,
2013-10-26 23:24:00,28.0,24.0,30.21,WNW,300,0.0,0.0,85,0.00,,,0.00,,2013-10-27 04:24:00,
2013-10-26 23:54:00,27.0,24.0,30.20,WNW,300,0.0,0.0,87,0.00,,,0.00,,2013-10-27 04:54:00,